Weather History for Nagpur Sonegaon, India

Change the Weather History Date:

Thursday, May 16, 2013

  Actual Average Record
Temperature  
Mean Temperature 97 °F -  
Max Temperature 113 °F 104 °F - ()
Min Temperature 81 °F 80 °F - ()
Cooling Degree Days 32    
Growing Degree Days 47 (Base 50)    
Moisture  
Dew Point 58 °F    
Average Humidity 26    
Maximum Humidity 54    
Minimum Humidity 11    
Precipitation  
Precipitation 0.00 in 0.13 in - ()
Sea Level Pressure  
Sea Level Pressure 29.56 in    
Wind  
Wind Speed 2 mph ()    
Max Wind Speed 9 mph    
Max Gust Speed -    
Visibility 2.7 miles    
Events      
T = Trace of Precipitation, MM = Missing Value Source: Averaged Metar Reports

Daily Weather History Graph

Daily Weather History Graph

Search for Another Location

Airport:

Trip Planner

Search our weather history database for the weather conditions in past years. The results will help you decide how hot, cold, wet, or windy it might be!

Date:

Astronomy

May. 16, 2013 Rise Set
Actual Time 5:35 AM IST 6:44 PM IST
Civil Twilight 5:11 AM IST 7:08 PM IST
Nautical Twilight 4:43 AM IST 7:37 PM IST
Astronomical Twilight 4:14 AM IST 8:06 PM IST
Moon 10:31 AM IST 11:37 PM IST
Length of Visible Light 13h 57m
Length of Day
13h 09m
Waxing Crescent, 32% of the Moon is Illuminated
May 16
Waxing Crescent
May 18
First Quarter
May 25
Full
Jun 1
Last Quarter
Jun 8
New

Hourly Weather History & Observations

Time (IST) Temp. Heat Index Dew Point Humidity Pressure Visibility Wind Dir Wind Speed Gust Speed Precip Events Conditions
12:10 AM 87.8 °F 87.1 °F 59.0 °F 38% 29.59 in 2.5 mi Calm Calm - N/A   Haze
2:10 AM 86.0 °F 85.4 °F 59.0 °F 40% 29.56 in 2.5 mi Calm Calm - N/A   Haze
2:30 AM 85 °F - 58 °F 30% 29.49 in 1 mi Calm Calm - -   Haze
3:10 AM 84.2 °F 83.8 °F 59.0 °F 42% 29.56 in 2.5 mi Calm Calm - N/A   Haze
4:10 AM 82.4 °F 82.5 °F 59.0 °F 45% 29.56 in 2.5 mi Calm Calm - N/A   Haze
5:10 AM 78.8 °F - 60.8 °F 54% 29.56 in 2.5 mi Calm Calm - N/A   Haze
5:30 AM 86 °F - 60 °F 31% 29.52 in 1 mi West 2.3 mph - -   Haze
5:40 AM 86.0 °F 85.4 °F 59.0 °F 40% 29.56 in 2.5 mi West 2.3 mph - N/A   Haze
6:10 AM 87.8 °F 87.1 °F 59.0 °F 38% 29.59 in 2.5 mi West 2.3 mph - N/A   Haze
6:40 AM 87.8 °F 87.6 °F 60.8 °F 40% 29.59 in 2.5 mi West 2.3 mph - N/A   Haze
7:10 AM 91.4 °F 91.4 °F 60.8 °F 36% 29.62 in 2.5 mi West 3.5 mph - N/A   Haze
8:10 AM 93.2 °F 93.3 °F 60.8 °F 34% 29.62 in 3.1 mi WSW 4.6 mph - N/A   Haze
8:30 AM 98 °F - 65 °F 24% 29.55 in 2 mi NNW 2.3 mph - -   Haze
9:10 AM 100.4 °F 104.9 °F 66.2 °F 33% 29.65 in 3.7 mi NW 3.5 mph - N/A   Scattered Clouds
10:10 AM 102.2 °F 105.5 °F 64.4 °F 29% 29.65 in 3.7 mi North 4.6 mph - N/A   Scattered Clouds
11:10 AM 105.8 °F 108.3 °F 62.6 °F 24% 29.62 in 3.7 mi NW 4.6 mph - N/A   Partly Cloudy
11:30 AM 109 °F - 64 °F 15% 29.51 in 2 mi North 6.9 mph - -   Scattered Clouds
12:10 PM 111.2 °F 116.0 °F 64.4 °F 22% 29.59 in 3.7 mi NNW 5.8 mph - N/A   Partly Cloudy
1:10 PM 111.2 °F 116.0 °F 64.4 °F 22% 29.56 in 3.7 mi North 4.6 mph - N/A   Scattered Clouds
1:40 PM 111.2 °F 116.0 °F 64.4 °F 22% 29.56 in 3.7 mi NNW 9.2 mph - N/A   Mostly Cloudy
2:10 PM 113.0 °F 118.1 °F 64.4 °F 21% 29.53 in 3.7 mi NNW 2.3 mph - N/A   Mostly Cloudy
2:30 PM 110 °F - 65 °F 16% 29.45 in 2 mi North 6.9 mph - -   Partly Cloudy
2:40 PM 113.0 °F 118.1 °F 64.4 °F 21% 29.53 in 3.7 mi NNE 5.8 mph - N/A   Mostly Cloudy
3:10 PM 113.0 °F 118.1 °F 64.4 °F 21% 29.53 in 3.7 mi NE 2.3 mph - N/A   Mostly Cloudy
3:40 PM 113.0 °F 118.1 °F 64.4 °F 21% 29.53 in 3.1 mi North 6.9 mph - N/A   Haze
4:10 PM 111.2 °F 116.0 °F 64.4 °F 22% 29.53 in 2.5 mi WNW 5.8 mph - N/A   Haze
4:40 PM 111.2 °F 116.0 °F 64.4 °F 22% 29.50 in 2.5 mi WNW 6.9 mph - N/A   Haze
5:10 PM 109.4 °F 113.7 °F 64.4 °F 23% 29.53 in 2.5 mi NW 3.5 mph - N/A   Haze
5:30 PM 109 °F - 66 °F 17% 29.42 in 2 mi NNW 3.5 mph - -   Haze
5:40 PM 109.4 °F 115.6 °F 66.2 °F 25% 29.53 in 2.5 mi NNW 2.3 mph - N/A   Haze
6:10 PM 105.8 °F - 41.0 °F 11% 29.53 in 2.5 mi NW 5.8 mph - N/A   Haze
6:40 PM 104.0 °F - 42.8 °F 12% 29.53 in 2.5 mi NNE 3.5 mph - N/A   Haze
7:10 PM 102.2 °F - 42.8 °F 13% 29.53 in 2.5 mi ENE 2.3 mph - N/A   Haze
8:10 PM 98.6 °F - 41.0 °F 14% 29.56 in 3.1 mi West 3.5 mph - N/A   Haze
8:30 PM 92 °F - 63 °F 29% 29.52 in 2 mi Calm Calm - -   Haze
8:40 PM 95.0 °F - 42.8 °F 16% 29.59 in 3.1 mi Calm Calm - N/A   Haze
9:10 PM 95.0 °F - 41.0 °F 15% 29.59 in 3.1 mi NW 3.5 mph - N/A   Haze
9:40 PM 93.2 °F - 42.8 °F 17% 29.59 in 3.1 mi Calm Calm - N/A   Haze
10:10 PM 93.2 °F - 42.8 °F 17% 29.62 in 3.1 mi Calm Calm - N/A   Haze
11:10 PM 89.6 °F - 44.6 °F 21% 29.62 in 3.1 mi WNW 3.5 mph - N/A   Haze
11:30 PM 88 °F - 61 °F 30% 29.55 in 2 mi West 3.5 mph - -   Haze